Simultaneous Nadir Overpasses (SNOs) Predictions

Prediction of SNOs between GOES-16 and NOAA-20 Satellite Orbit:

Table of predicted SNOs for the next 14.0 days since TLE Epoch: 6/5/2021
Index Date Time (GOES-16) GOES-16 Lat,Lon NOAA-20 Lat,Lon Distance(km) Time Diff (sec)
1 06/05/2021 18:23:26 0.01, -75.23 0.22, -74.37 98.40 80
2 06/08/2021 06:26:29 -0.02, -75.23 -0.07, -75.12 13.81 80
3 06/10/2021 18:27:01 0.02, -75.24 -0.13, -75.89 73.78 80
4 06/11/2021 18:10:57 0.02, -75.25 0.88, -71.36 443.03 80
5 06/13/2021 06:30:05 -0.03, -75.25 0.27, -76.64 157.55 80
6 06/14/2021 06:14:01 -0.02, -75.26 -0.74, -72.11 359.49 80
7 06/15/2021 18:33:17 0.03, -75.28 -0.47, -77.41 243.64 80
8 06/16/2021 18:17:12 0.02, -75.29 0.55, -72.88 273.87 80
9 06/18/2021 06:36:21 -0.03, -75.30 0.61, -78.16 325.60 80
